Regional Weather Roundup
Issued by NWS

Home | Current Version | Previous Version | Text Only | Print | Product List | Glossary On
Versions: 1 2 3 4 5 6 7 8 9 10 11 12 13 14 15 16 17 18 19 20 21 22 23 24 25 26 27 28 29 30 31 32 33 34 35 36 37 38 39 40 41 42 43 44 45 46 47 48 49 50
000
ASUS43 KTOP 020708
RWRKS

WEATHER ROUNDUP FOR KANSAS
NATIONAL WEATHER SERVICE GOODLAND KS
200 AM CDT TUE JUN 02 2015

NOTE:  "FAIR" INDICATES FEW OR NO CLOUDS BELOW 12,000 FEET WITH NO
SIGNIFICANT WEATHER AND/OR OBSTRUCTIONS TO VISIBILITY.

KSZ001>006-013>018-027>032-041>047-020800-
NORTHWEST KANSAS

CITY           SKY/WX    TMP DP  RH WIND       PRES   REMARKS
GOODLAND       CLOUDY    65  63  93 SE12      29.97F
HAYS           MOCLDY    63  55  77 SE13      30.00F
HILL CITY      MOCLDY    65  60  84 SE8       29.99F
RUSSELL        MOCLDY    64  59  83 SE15      30.00S
$$

KSZ061>065-074>080-084>089-020800-
SOUTHWEST KANSAS

CITY           SKY/WX    TMP DP  RH WIND       PRES   REMARKS
DODGE CITY     PTCLDY    67  61  81 S15       30.01F
ELKHART          N/A     61  56  84 S8          N/A
GARDEN CITY    MOCLDY    65  62  90 SE14      29.98F
GREAT BEND     MOCLDY    63  57  82 SE15      30.01S
LIBERAL        PTCLDY    66  61  82 S9        30.01F
PRATT          PTCLDY    63  59  88 SE9       30.03F
$$

KSZ066>073-081>083-090>101-020800-
SOUTHEAST KANSAS

CITY           SKY/WX    TMP DP  RH WIND       PRES   REMARKS
CHANUTE        CLOUDY    58  55  90 E10       30.10F
COFFEYVILLE    CLOUDY    62  58  86 E7        30.08F
HUTCHINSON     CLOUDY    65  58  78 SE12      30.03F
MEDICINE LODGE   N/A     65  60  84 SE6       30.02F
NEWTON         CLOUDY    61  54  77 SE13      30.07F
PARSONS        CLOUDY    61  58  90 VRB3      30.10F
WICHITA INTL   MOCLDY    65  58  78 SE12      30.05S
WICHITA JABRA  CLOUDY    62  58  86 E8        30.05F
WICHITA MCCONL CLOUDY    64  58  83 E10       30.05S
WINFIELD       CLOUDY    65  59  81 E10       30.06S
$$

KSZ007>012-019>026-033>040-048>060-102>105-020800-
NORTHEAST KANSAS

CITY           SKY/WX    TMP DP  RH WIND       PRES   REMARKS
CONCORDIA      CLOUDY    61  57  87 SE13      30.03F
EMPORIA        CLOUDY    57  55  93 SE9       30.09F
LAWRENCE       MOCLDY    58  53  84 SE8       30.11F
MANHATTAN      PTCLDY    59  55  87 E7        30.06F
MARYSVILLE     MOCLDY    55  54  94 SE9       30.06F
OLATHE IND     CLOUDY    59  53  80 SE9       30.13F
OLATHE EXE     CLOUDY    59  53  80 S5        30.12S
SALINA         MOCLDY    63  57  81 SE9       30.04F
TOPEKA BILLARD CLEAR     56  53  90 SE6       30.10F
TOPEKA FORBES  CLEAR     57  53  86 SE7       30.09F
$$


USA.gov is the U.S. government's official web portal to all federal, state and local government web resources and services.